contact:dominique.lefevre@mio.osupytheas.fr, maurice.libes@osupytheas.fr, didier.mallarino@osupytheas.fr
Project:EMSO http://www.emso-fr.org/EMSO-France
Depth: 2436.0 m
Title:EMSO Ligure Ouest : Data MII capteur AQUADOPP
Date,Latitude,Longitude,X_East,Y_North,Z_Up,Amplitude_X,Amplitude_Y,Amplitude_Z,Batterie,SoundSpeed,Heading,Pitch,Roll,Pressure,TIS,Speed,Direction
, degrees North, degrees East, m.s-1, m.s-1,m.s-1, 1, 1, 1, Volt, m.s-1, degree, degree, degree, dbar, degree_C, m.s-1, degree
2023-04-09T00:04:03,42.805,6.029,-0.026,0.018,0.015,104.0,102.0,101.0,13.4,1505.2,325.0,-0.8,1.8,2471.421,13.28,0.031,304.7
2023-04-09T00:07:03,42.805,6.029,-0.048,0.009,-0.017,104.0,104.0,102.0,13.3,1505.2,325.8,-0.8,1.8,2471.369,13.29,0.048,280.6
2023-04-09T00:10:03,42.805,6.029,-0.012,0.003,-0.014,105.0,105.0,102.0,13.4,1505.2,324.9,-0.8,1.8,2471.371,13.29,0.012,284.0
2023-04-09T00:13:03,42.805,6.029,-0.025,-0.014,-0.014,104.0,104.0,102.0,13.4,1505.2,323.8,-0.7,1.8,2471.387,13.29,0.028,240.7
2023-04-09T00:16:03,42.805,6.029,-0.025,0.013,0.003,103.0,104.0,101.0,13.4,1505.2,334.6,-0.8,1.8,2471.333,13.29,0.028,297.5
2023-04-09T00:19:03,42.805,6.029,-0.011,0.001,-0.01,104.0,103.0,103.0,13.3,1505.2,329.9,-0.8,1.8,2471.352,13.29,0.011,275.2
2023-04-09T00:22:03,42.805,6.029,-0.043,0.013,-0.024,104.0,101.0,103.0,13.3,1505.2,329.8,-0.8,1.8,2471.3,13.29,0.044,286.8
2023-04-09T00:25:03,42.805,6.029,-0.029,-0.004,-0.035,103.0,102.0,101.0,13.4,1505.2,340.2,-0.8,1.8,2471.322,13.29,0.029,262.2
2023-04-09T00:28:03,42.805,6.029,-0.027,-0.012,-0.006,103.0,102.0,101.0,13.4,1505.2,329.2,-0.7,1.8,2471.294,13.29,0.029,246.0
2023-04-09T00:31:03,42.805,6.029,-0.025,0.006,-0.055,104.0,101.0,102.0,13.3,1505.2,331.9,-0.8,1.8,2471.323,13.29,0.025,283.5
2023-04-09T00:34:03,42.805,6.029,-0.023,0.024,-0.028,103.0,103.0,102.0,13.3,1505.2,323.8,-0.8,1.8,2471.286,13.29,0.033,316.2
2023-04-09T00:37:03,42.805,6.029,-0.014,0.012,-0.007,102.0,101.0,103.0,13.3,1505.2,323.3,-0.8,1.8,2471.29,13.29,0.018,310.6
2023-04-09T00:40:03,42.805,6.029,-0.026,-0.008,-0.015,103.0,102.0,100.0,13.4,1505.2,324.4,-0.8,1.8,2471.285,13.29,0.027,252.9
2023-04-09T00:43:03,42.805,6.029,-0.02,-0.002,-0.021,103.0,103.0,101.0,13.4,1505.2,337.5,-0.8,1.8,2471.297,13.29,0.02,264.3
2023-04-09T00:46:03,42.805,6.029,-0.016,-0.006,-0.023,104.0,101.0,102.0,13.3,1505.2,325.4,-0.8,1.8,2471.275,13.29,0.017,249.4
2023-04-09T00:49:03,42.805,6.029,-0.018,0.024,-0.019,103.0,103.0,99.0,13.4,1505.2,337.6,-0.8,1.8,2471.292,13.29,0.03,323.1
2023-04-09T00:52:03,42.805,6.029,-0.028,0.012,-0.006,105.0,100.0,101.0,13.4,1505.2,330.9,-0.8,1.8,2471.271,13.29,0.03,293.2
2023-04-09T00:55:03,42.805,6.029,-0.026,0.012,-0.023,103.0,102.0,101.0,13.4,1505.2,325.3,-0.7,1.8,2471.27,13.29,0.028,294.8
2023-04-09T00:58:03,42.805,6.029,-0.005,-0.001,0.021,102.0,101.0,101.0,13.3,1505.2,342.8,-0.8,1.8,2471.28,13.29,0.005,258.7
2023-04-09T01:04:03,42.805,6.029,-0.045,0.003,-0.034,103.0,104.0,102.0,13.4,1505.2,326.5,-0.7,1.8,2471.275,13.28,0.045,273.8
2023-04-09T01:07:03,42.805,6.029,-0.011,-0.018,-0.021,102.0,103.0,102.0,13.4,1505.2,319.8,-0.8,1.8,2471.306,13.29,0.021,211.4
2023-04-09T01:10:03,42.805,6.029,-0.017,0.013,-0.008,105.0,103.0,102.0,13.3,1505.2,334.9,-0.7,1.8,2471.296,13.29,0.021,307.4
2023-04-09T01:13:03,42.805,6.029,-0.013,0.003,-0.006,102.0,101.0,101.0,13.4,1505.2,339.6,-0.8,1.8,2471.297,13.29,0.013,283.0
2023-04-09T01:16:03,42.805,6.029,-0.021,-0.006,-0.031,102.0,102.0,102.0,13.4,1505.2,334.2,-0.7,1.8,2471.298,13.29,0.021,254.1
2023-04-09T01:19:03,42.805,6.029,-0.037,0.008,-0.023,103.0,103.0,101.0,13.3,1505.2,319.1,-0.7,1.8,2471.289,13.29,0.037,282.2
2023-04-09T01:22:03,42.805,6.029,-0.005,-0.003,-0.033,102.0,104.0,102.0,13.3,1505.2,324.6,-0.7,1.8,2471.267,13.29,0.005,239.0
2023-04-09T01:25:03,42.805,6.029,-0.028,0.028,-0.013,104.0,101.0,100.0,13.3,1505.2,333.4,-0.8,1.8,2471.275,13.29,0.039,315.0
2023-04-09T01:28:03,42.805,6.029,-0.028,0.013,-0.018,102.0,103.0,100.0,13.4,1505.2,323.7,-0.8,1.8,2471.282,13.29,0.03,294.9
2023-04-09T01:31:03,42.805,6.029,-0.033,0.013,-0.001,102.0,102.0,102.0,13.4,1505.2,337.0,-0.8,1.8,2471.281,13.29,0.035,291.5
2023-04-09T01:34:03,42.805,6.029,-0.002,-0.015,-0.034,102.0,102.0,101.0,13.4,1505.2,333.8,-0.8,1.8,2471.264,13.29,0.015,187.6
2023-04-09T01:37:03,42.805,6.029,-0.007,0.012,-0.002,101.0,103.0,101.0,13.4,1505.2,329.7,-0.8,1.8,2471.27,13.29,0.013,329.7
2023-04-09T01:40:03,42.805,6.029,-0.016,-0.012,0.0,102.0,103.0,101.0,13.3,1505.2,330.1,-0.8,1.8,2471.258,13.29,0.02,233.1
2023-04-09T01:43:03,42.805,6.029,-0.011,0.023,0.001,102.0,102.0,102.0,13.4,1505.2,337.3,-0.8,1.8,2471.244,13.29,0.025,334.4
2023-04-09T01:46:03,42.805,6.029,-0.012,0.003,0.002,104.0,100.0,100.0,13.3,1505.2,326.5,-0.8,1.8,2471.256,13.29,0.012,284.0
2023-04-09T01:49:03,42.805,6.029,-0.039,0.016,-0.026,102.0,101.0,101.0,13.4,1505.2,337.0,-0.8,1.8,2471.249,13.29,0.042,292.3
2023-04-09T01:52:03,42.805,6.029,-0.028,0.011,-0.016,103.0,102.0,101.0,13.4,1505.2,332.9,-0.8,1.8,2471.237,13.29,0.03,291.4
2023-04-09T01:55:03,42.805,6.029,-0.025,0.002,-0.042,102.0,103.0,101.0,13.3,1505.2,333.9,-0.8,1.8,2471.265,13.29,0.025,274.6
2023-04-09T01:58:03,42.805,6.029,-0.033,0.019,0.019,102.0,102.0,101.0,13.4,1505.2,320.7,-0.8,1.8,2471.235,13.29,0.038,299.9
2023-04-09T02:04:03,42.805,6.029,-0.021,-0.015,-0.038,102.0,102.0,100.0,13.4,1505.2,342.8,-0.8,1.8,2471.283,13.28,0.025,234.5
2023-04-09T02:07:03,42.805,6.029,-0.013,-0.023,-0.052,102.0,102.0,100.0,13.3,1505.2,319.8,-0.7,1.8,2471.275,13.28,0.026,209.5
2023-04-09T02:10:03,42.805,6.029,-0.017,-0.012,-0.029,100.0,103.0,101.0,13.4,1505.2,333.4,-0.7,1.8,2471.232,13.29,0.02,234.8
2023-04-09T02:13:03,42.805,6.029,-0.02,0.011,-0.024,103.0,100.0,101.0,13.4,1505.2,332.1,-0.8,1.8,2471.275,13.29,0.022,298.8
2023-04-09T02:16:03,42.805,6.029,-0.026,-0.001,-0.012,101.0,101.0,102.0,13.4,1505.2,334.3,-0.8,1.8,2471.24,13.29,0.026,267.8
2023-04-09T02:19:03,42.805,6.029,-0.012,-0.007,-0.043,102.0,102.0,102.0,13.4,1505.2,336.8,-0.7,1.8,2471.277,13.29,0.013,239.7
2023-04-09T02:22:03,42.805,6.029,-0.021,0.002,-0.005,101.0,103.0,101.0,13.3,1505.2,325.1,-0.7,1.8,2471.254,13.29,0.021,275.4
2023-04-09T02:25:03,42.805,6.029,-0.003,0.005,-0.039,103.0,102.0,101.0,13.4,1505.2,333.8,-0.8,1.8,2471.249,13.29,0.005,329.0
2023-04-09T02:28:03,42.805,6.029,-0.013,0.009,-0.037,101.0,102.0,101.0,13.4,1505.2,336.9,-0.8,1.8,2471.267,13.29,0.015,304.7
2023-04-09T02:31:03,42.805,6.029,-0.015,0.008,-0.041,102.0,102.0,100.0,13.3,1505.2,322.3,-0.7,1.8,2471.271,13.29,0.017,298.1
2023-04-09T02:34:03,42.805,6.029,-0.031,-0.011,-0.027,101.0,102.0,102.0,13.4,1505.2,325.0,-0.8,1.9,2471.277,13.29,0.032,250.5
2023-04-09T02:37:03,42.805,6.029,-0.038,0.002,-0.055,101.0,102.0,102.0,13.3,1505.2,324.5,-0.8,1.8,2471.243,13.29,0.038,273.0
2023-04-09T02:40:03,42.805,6.029,-0.018,0.011,-0.014,102.0,104.0,101.0,13.4,1505.2,326.5,-0.7,1.8,2471.223,13.29,0.021,301.4
2023-04-09T02:43:03,42.805,6.029,-0.014,0.005,0.0,102.0,103.0,100.0,13.4,1505.2,322.5,-0.8,1.8,2471.237,13.29,0.014,289.6
2023-04-09T02:46:03,42.805,6.029,-0.024,-0.007,-0.025,102.0,102.0,101.0,13.3,1505.2,334.4,-0.8,1.8,2471.243,13.29,0.025,253.7
2023-04-09T02:49:03,42.805,6.029,-0.025,0.008,-0.031,100.0,102.0,102.0,13.3,1505.2,323.5,-0.8,1.8,2471.221,13.29,0.026,287.7
2023-04-09T02:52:03,42.805,6.029,-0.016,-0.001,-0.015,100.0,102.0,101.0,13.4,1505.2,343.9,-0.8,1.8,2471.214,13.29,0.016,266.4
2023-04-09T02:55:03,42.805,6.029,-0.029,0.019,-0.002,102.0,101.0,101.0,13.3,1505.2,316.8,-0.8,1.8,2471.253,13.29,0.034,303.2
2023-04-09T02:58:03,42.805,6.029,-0.013,0.009,-0.034,102.0,103.0,101.0,13.3,1505.2,328.0,-0.7,1.8,2471.252,13.29,0.015,304.7
2023-04-09T03:04:03,42.805,6.029,-0.031,-0.005,-0.052,103.0,101.0,103.0,13.4,1505.2,329.4,-0.8,1.8,2471.29,13.29,0.031,260.8
2023-04-09T03:07:03,42.805,6.029,-0.011,-0.018,-0.038,102.0,102.0,102.0,13.3,1505.2,335.2,-0.7,1.8,2471.311,13.29,0.021,211.4
2023-04-09T03:10:03,42.805,6.029,-0.002,0.017,-0.01,102.0,102.0,100.0,13.4,1505.2,335.2,-0.8,1.8,2471.263,13.29,0.017,353.3
2023-04-09T03:13:03,42.805,6.029,-0.009,-0.004,-0.043,101.0,101.0,102.0,13.3,1505.2,329.0,-0.7,1.9,2471.251,13.29,0.009,246.0
2023-04-09T03:16:03,42.805,6.029,0.0,0.008,-0.019,100.0,103.0,102.0,13.3,1505.2,326.5,-0.8,1.8,2471.262,13.29,0.008,0.0
2023-04-09T03:19:03,42.805,6.029,-0.002,0.008,-0.032,104.0,101.0,101.0,13.4,1505.2,341.2,-0.7,1.8,2471.283,13.29,0.008,346.0
2023-04-09T03:22:03,42.805,6.029,-0.005,0.012,-0.001,102.0,103.0,101.0,13.4,1505.2,336.9,-0.8,1.8,2471.233,13.29,0.013,337.4
2023-04-09T03:25:03,42.805,6.029,0.021,0.0,-0.012,103.0,104.0,101.0,13.4,1505.2,327.3,-0.8,1.8,2471.24,13.29,0.021,90.0
2023-04-09T03:28:03,42.805,6.029,-0.007,0.005,-0.039,102.0,102.0,101.0,13.4,1505.2,344.7,-0.8,1.8,2471.238,13.29,0.008,305.5
2023-04-09T03:31:03,42.805,6.029,0.0,0.003,-0.012,102.0,103.0,101.0,13.4,1505.2,321.3,-0.8,1.8,2471.205,13.29,0.003,0.0
2023-04-09T03:34:03,42.805,6.029,-0.002,0.006,-0.045,103.0,102.0,101.0,13.3,1505.2,336.9,-0.8,1.8,2471.215,13.29,0.006,341.6
2023-04-09T03:37:03,42.805,6.029,-0.025,0.008,-0.006,101.0,101.0,101.0,13.4,1505.2,323.6,-0.7,1.8,2471.273,13.29,0.026,287.7
2023-04-09T03:40:03,42.805,6.029,-0.03,-0.009,-0.057,103.0,101.0,100.0,13.3,1505.2,322.9,-0.7,1.8,2471.229,13.29,0.031,253.3
2023-04-09T03:43:03,42.805,6.029,-0.046,0.026,-0.009,102.0,102.0,100.0,13.4,1505.2,324.9,-0.8,1.8,2471.237,13.29,0.052,299.5
2023-04-09T03:46:03,42.805,6.029,-0.019,-0.003,-0.025,101.0,103.0,100.0,13.4,1505.2,332.9,-0.8,1.9,2471.24,13.29,0.019,261.0
2023-04-09T03:49:03,42.805,6.029,-0.002,0.012,-0.021,101.0,102.0,101.0,13.3,1505.2,335.1,-0.8,1.8,2471.229,13.29,0.012,350.5
2023-04-09T03:52:03,42.805,6.029,-0.022,0.017,-0.004,102.0,102.0,101.0,13.4,1505.2,340.3,-0.8,1.8,2471.247,13.29,0.027,307.7
2023-04-09T03:55:03,42.805,6.029,-0.026,0.0,-0.036,103.0,103.0,101.0,13.3,1505.2,322.0,-0.8,1.8,2471.255,13.29,0.026,270.0
2023-04-09T03:58:03,42.805,6.029,-0.006,0.0,-0.036,101.0,103.0,101.0,13.4,1505.2,335.8,-0.7,1.8,2471.226,13.29,0.006,270.0
2023-04-09T04:04:03,42.805,6.029,0.003,-0.002,-0.008,101.0,101.0,102.0,13.3,1505.2,331.4,-0.8,1.8,2471.279,13.29,0.003,123.7
2023-04-09T04:07:03,42.805,6.029,-0.011,0.001,-0.017,101.0,100.0,102.0,13.4,1505.2,318.2,-0.8,1.8,2471.277,13.29,0.011,275.2
2023-04-09T04:10:03,42.805,6.029,0.003,0.0,-0.018,101.0,104.0,101.0,13.4,1505.2,325.2,-0.8,1.8,2471.302,13.29,0.003,90.0
2023-04-09T04:13:03,42.805,6.029,0.012,0.007,-0.005,101.0,103.0,103.0,13.4,1505.2,340.8,-0.8,1.8,2471.256,13.29,0.013,59.7
2023-04-09T04:16:03,42.805,6.029,-0.012,-0.009,-0.037,102.0,101.0,102.0,13.4,1505.2,321.3,-0.7,1.8,2471.264,13.29,0.015,233.1
2023-04-09T04:19:03,42.805,6.029,0.01,0.017,-0.031,102.0,100.0,101.0,13.3,1505.2,331.9,-0.8,1.8,2471.251,13.29,0.019,30.5
2023-04-09T04:22:03,42.805,6.029,-0.009,-0.007,-0.054,101.0,101.0,102.0,13.4,1505.2,327.8,-0.8,1.8,2471.239,13.29,0.011,232.1
2023-04-09T04:25:03,42.805,6.029,-0.005,0.003,-0.043,101.0,102.0,103.0,13.3,1505.2,326.5,-0.8,1.8,2471.227,13.29,0.005,301.0
2023-04-09T04:28:03,42.805,6.029,-0.026,0.013,-0.022,102.0,100.0,100.0,13.3,1505.2,323.1,-0.8,1.8,2471.251,13.29,0.029,296.6
2023-04-09T04:31:03,42.805,6.029,-0.028,-0.001,-0.052,101.0,102.0,100.0,13.4,1505.2,332.5,-0.7,1.8,2471.252,13.29,0.028,268.0
2023-04-09T04:34:03,42.805,6.029,-0.047,0.014,-0.035,104.0,101.0,100.0,13.4,1505.2,335.1,-0.7,1.8,2471.228,13.29,0.049,286.6
2023-04-09T04:37:03,42.805,6.029,-0.018,0.009,-0.022,102.0,100.0,101.0,13.3,1505.2,340.2,-0.8,1.8,2471.256,13.29,0.02,296.6
2023-04-09T04:40:03,42.805,6.029,-0.006,0.018,-0.018,102.0,102.0,101.0,13.3,1505.2,321.3,-0.8,1.8,2471.255,13.29,0.018,341.6
2023-04-09T04:43:03,42.805,6.029,-0.016,0.012,-0.031,100.0,103.0,101.0,13.4,1505.2,332.1,-0.8,1.8,2471.294,13.29,0.02,306.9
2023-04-09T04:46:03,42.805,6.029,-0.034,0.008,-0.008,102.0,101.0,100.0,13.3,1505.2,323.1,-0.8,1.8,2471.226,13.29,0.034,283.2
2023-04-09T04:49:03,42.805,6.029,-0.009,-0.005,-0.031,102.0,100.0,101.0,13.4,1505.2,327.3,-0.8,1.8,2471.227,13.29,0.01,240.9
2023-04-09T04:52:03,42.805,6.029,0.013,-0.005,0.012,103.0,103.0,100.0,13.4,1505.2,340.8,-0.8,1.8,2471.224,13.29,0.013,111.0
2023-04-09T04:55:03,42.805,6.029,0.005,0.007,-0.032,101.0,105.0,101.0,13.4,1505.2,324.1,-0.8,1.8,2471.248,13.29,0.008,35.5
2023-04-09T04:58:03,42.805,6.029,-0.007,0.011,-0.003,102.0,101.0,102.0,13.3,1505.2,329.2,-0.8,1.8,2471.249,13.29,0.013,327.5
2023-04-09T05:04:03,42.805,6.029,-0.03,-0.002,-0.04,102.0,102.0,101.0,13.4,1505.2,334.8,-0.8,1.8,2471.3,13.29,0.03,266.2
2023-04-09T05:07:03,42.805,6.029,-0.022,0.014,-0.026,102.0,100.0,101.0,13.3,1505.2,331.9,-0.8,1.8,2471.29,13.29,0.026,302.5
2023-04-09T05:10:03,42.805,6.029,-0.005,0.0,-0.021,102.0,101.0,100.0,13.4,1505.2,335.4,-0.8,1.8,2471.266,13.29,0.005,270.0
2023-04-09T05:13:03,42.805,6.029,-0.016,0.018,-0.011,101.0,102.0,101.0,13.3,1505.2,342.2,-0.8,1.8,2471.306,13.29,0.024,318.4
2023-04-09T05:16:03,42.805,6.029,0.0,-0.016,-0.039,102.0,101.0,100.0,13.4,1505.2,335.3,-0.8,1.8,2471.287,13.29,0.016,180.0
2023-04-09T05:19:03,42.805,6.029,-0.001,0.004,-0.035,102.0,101.0,100.0,13.4,1505.2,327.9,-0.8,1.8,2471.276,13.29,0.004,346.0
2023-04-09T05:22:03,42.805,6.029,-0.018,0.008,-0.012,100.0,102.0,100.0,13.3,1505.2,338.4,-0.8,1.8,2471.298,13.29,0.019,294.0
2023-04-09T05:25:03,42.805,6.029,0.003,0.002,-0.017,101.0,100.0,101.0,13.3,1505.2,342.5,-0.8,1.8,2471.289,13.29,0.003,56.3
2023-04-09T05:28:03,42.805,6.029,-0.01,0.001,-0.033,101.0,102.0,101.0,13.3,1505.2,320.3,-0.7,1.8,2471.257,13.29,0.01,275.7
2023-04-09T05:31:03,42.805,6.029,-0.007,0.008,0.001,99.0,102.0,102.0,13.4,1505.2,330.9,-0.8,1.8,2471.294,13.29,0.01,318.8
2023-04-09T05:34:03,42.805,6.029,-0.004,0.004,-0.012,102.0,103.0,100.0,13.3,1505.2,334.4,-0.8,1.8,2471.29,13.29,0.005,315.0
2023-04-09T05:37:03,42.805,6.029,-0.009,0.001,-0.005,103.0,101.0,101.0,13.3,1505.2,325.7,-0.8,1.8,2471.269,13.29,0.009,276.3
2023-04-09T05:40:03,42.805,6.029,0.0,0.003,-0.002,102.0,102.0,101.0,13.4,1505.2,325.0,-0.8,1.8,2471.28,13.29,0.003,0.0
2023-04-09T05:43:03,42.805,6.029,-0.003,-0.003,-0.066,102.0,102.0,101.0,13.3,1505.2,344.9,-0.7,1.8,2471.298,13.29,0.004,225.0
2023-04-09T05:46:03,42.805,6.029,-0.03,0.0,-0.067,101.0,102.0,101.0,13.4,1505.2,334.3,-0.8,1.8,2471.303,13.29,0.03,270.0
2023-04-09T05:49:03,42.805,6.029,0.009,-0.006,-0.033,100.0,103.0,102.0,13.4,1505.2,331.4,-0.7,1.8,2471.301,13.29,0.01,123.7
2023-04-09T05:52:03,42.805,6.029,0.0,0.0,-0.021,100.0,101.0,101.0,13.3,1505.2,332.9,-0.8,1.8,2471.294,13.29,0.0,0.0
2023-04-09T05:55:03,42.805,6.029,-0.025,-0.017,-0.04,102.0,101.0,100.0,13.3,1505.2,330.7,-0.7,1.8,2471.295,13.29,0.03,235.8
2023-04-09T05:58:03,42.805,6.029,-0.007,0.007,-0.018,103.0,101.0,101.0,13.4,1505.2,343.9,-0.7,1.8,2471.278,13.29,0.009,315.0
2023-04-09T06:04:04,42.805,6.029,-0.005,0.014,-0.012,101.0,102.0,101.0,13.3,1505.2,325.4,-0.8,1.8,2471.367,13.29,0.014,340.4
2023-04-09T06:07:03,42.805,6.029,0.0,0.016,-0.036,101.0,102.0,101.0,13.3,1505.2,339.4,-0.8,1.8,2471.323,13.29,0.016,0.0
2023-04-09T06:10:03,42.805,6.029,0.021,-0.02,-0.02,101.0,100.0,102.0,13.3,1505.2,326.0,-0.8,1.8,2471.335,13.29,0.028,133.6
2023-04-09T06:13:03,42.805,6.029,-0.016,0.003,-0.003,101.0,102.0,100.0,13.4,1505.2,343.3,-0.8,1.8,2471.327,13.29,0.016,280.6
2023-04-09T06:16:03,42.805,6.029,0.0,-0.017,-0.024,101.0,102.0,100.0,13.4,1505.2,330.4,-0.8,1.8,2471.305,13.29,0.017,180.0
2023-04-09T06:19:03,42.805,6.029,0.0,0.005,-0.022,101.0,103.0,102.0,13.4,1505.2,329.4,-0.8,1.8,2471.298,13.29,0.005,0.0
2023-04-09T06:22:03,42.805,6.029,-0.011,0.0,-0.054,100.0,102.0,100.0,13.3,1505.2,335.1,-0.8,1.8,2471.323,13.29,0.011,270.0
2023-04-09T06:25:03,42.805,6.029,-0.001,-0.016,-0.053,102.0,101.0,101.0,13.4,1505.2,331.8,-0.7,1.8,2471.361,13.29,0.016,183.6
2023-04-09T06:28:03,42.805,6.029,0.009,-0.007,-0.019,101.0,102.0,100.0,13.4,1505.2,317.9,-0.8,1.8,2471.344,13.29,0.011,127.9
2023-04-09T06:31:03,42.805,6.029,0.008,0.01,-0.018,101.0,101.0,101.0,13.4,1505.2,334.4,-0.8,1.8,2471.347,13.29,0.012,38.7
2023-04-09T06:34:03,42.805,6.029,0.014,-0.01,-0.034,102.0,102.0,99.0,13.4,1505.2,340.6,-0.8,1.8,2471.299,13.29,0.017,125.5
2023-04-09T06:37:03,42.805,6.029,0.002,-0.005,-0.038,101.0,103.0,101.0,13.4,1505.2,324.8,-0.8,1.8,2471.333,13.29,0.005,158.2
2023-04-09T06:40:03,42.805,6.029,0.012,-0.005,-0.018,102.0,101.0,102.0,13.4,1505.2,326.3,-0.8,1.8,2471.366,13.29,0.013,112.6
2023-04-09T06:43:03,42.805,6.029,0.001,0.006,-0.008,101.0,103.0,100.0,13.4,1505.2,341.8,-0.8,1.8,2471.332,13.29,0.006,9.5
2023-04-09T06:46:03,42.805,6.029,-0.011,0.017,-0.003,101.0,103.0,101.0,13.4,1505.2,325.8,-0.8,1.8,2471.372,13.29,0.02,327.1
2023-04-09T06:49:03,42.805,6.029,0.005,-0.03,-0.023,101.0,101.0,102.0,13.4,1505.2,333.9,-0.7,1.8,2471.323,13.29,0.03,170.5
2023-04-09T06:52:03,42.805,6.029,-0.004,-0.017,-0.064,101.0,101.0,100.0,13.4,1505.2,339.7,-0.8,1.8,2471.356,13.29,0.017,193.2
2023-04-09T06:55:03,42.805,6.029,-0.005,0.008,0.001,102.0,101.0,100.0,13.4,1505.2,321.3,-0.7,1.8,2471.333,13.29,0.009,328.0
2023-04-09T06:58:03,42.805,6.029,0.009,-0.007,0.006,101.0,102.0,101.0,13.4,1505.2,326.3,-0.8,1.8,2471.404,13.29,0.011,127.9
2023-04-09T07:04:03,42.805,6.029,0.006,0.005,-0.01,102.0,101.0,100.0,13.4,1505.2,333.8,-0.7,1.8,2471.392,13.29,0.007,50.2
2023-04-09T07:07:03,42.805,6.029,-0.001,-0.003,0.01,99.0,103.0,101.0,13.4,1505.2,336.9,-0.7,1.8,2471.372,13.29,0.003,198.4
2023-04-09T07:10:03,42.805,6.029,-0.002,0.004,-0.004,104.0,101.0,100.0,13.4,1505.2,323.5,-0.8,1.8,2471.37,13.29,0.004,333.4
2023-04-09T07:13:03,42.805,6.029,0.008,-0.017,-0.036,103.0,99.0,101.0,13.3,1505.2,323.1,-0.8,1.8,2471.411,13.29,0.018,154.8
2023-04-09T07:16:03,42.805,6.029,0.021,-0.008,-0.02,101.0,102.0,101.0,13.4,1505.2,329.3,-0.8,1.8,2471.404,13.29,0.022,110.9
2023-04-09T07:19:03,42.805,6.029,0.018,-0.02,-0.049,101.0,102.0,101.0,13.3,1505.2,320.1,-0.8,1.8,2471.389,13.29,0.026,138.0
2023-04-09T07:22:03,42.805,6.029,-0.001,-0.002,-0.023,102.0,102.0,101.0,13.4,1505.2,323.1,-0.7,1.8,2471.373,13.29,0.002,206.6
2023-04-09T07:25:03,42.805,6.029,-0.001,0.0,-0.017,101.0,103.0,100.0,13.4,1505.2,343.6,-0.8,1.8,2471.364,13.29,0.001,270.0
2023-04-09T07:28:03,42.805,6.029,-0.005,0.0,0.003,101.0,102.0,101.0,13.4,1505.2,336.2,-0.8,1.8,2471.387,13.29,0.005,270.0
2023-04-09T07:31:03,42.805,6.029,0.014,-0.019,-0.048,101.0,101.0,100.0,13.4,1505.2,325.8,-0.8,1.8,2471.388,13.29,0.023,143.6
2023-04-09T07:34:03,42.805,6.029,-0.008,0.023,-0.001,101.0,100.0,100.0,13.4,1505.2,331.0,-0.7,1.8,2471.405,13.29,0.024,340.8
2023-04-09T07:37:03,42.805,6.029,0.015,-0.019,-0.025,102.0,102.0,100.0,13.4,1505.2,333.9,-0.7,1.8,2471.356,13.29,0.024,141.7
2023-04-09T07:40:03,42.805,6.029,-0.004,-0.01,-0.042,101.0,102.0,101.0,13.4,1505.2,338.4,-0.7,1.8,2471.399,13.29,0.01,201.8
2023-04-09T07:43:03,42.805,6.029,0.014,0.001,-0.022,103.0,102.0,100.0,13.4,1505.2,318.2,-0.8,1.9,2471.413,13.29,0.014,85.9
2023-04-09T07:46:03,42.805,6.029,0.028,-0.012,-0.008,102.0,102.0,102.0,13.3,1505.2,325.8,-0.8,1.8,2471.367,13.29,0.03,113.2
2023-04-09T07:49:03,42.805,6.029,0.003,0.0,-0.029,102.0,102.0,102.0,13.3,1505.2,318.5,-0.8,1.8,2471.365,13.29,0.003,90.0
2023-04-09T07:52:03,42.805,6.029,0.01,-0.013,-0.034,101.0,102.0,102.0,13.4,1505.2,332.4,-0.8,1.8,2471.371,13.29,0.016,142.4
2023-04-09T07:55:03,42.805,6.029,-0.008,0.0,0.0,103.0,102.0,100.0,13.3,1505.2,321.4,-0.8,1.8,2471.417,13.29,0.008,270.0
2023-04-09T07:58:03,42.805,6.029,0.013,-0.016,-0.03,100.0,101.0,101.0,13.4,1505.2,328.0,-0.8,1.9,2471.419,13.29,0.02,140.9
2023-04-09T08:04:03,42.805,6.029,0.014,-0.007,-0.007,101.0,101.0,101.0,13.3,1505.2,339.6,-0.8,1.9,2471.435,13.28,0.015,116.6
2023-04-09T08:07:03,42.805,6.029,-0.008,-0.015,-0.014,101.0,101.0,101.0,13.3,1505.2,327.1,-0.8,1.8,2471.453,13.28,0.017,208.1
2023-04-09T08:10:03,42.805,6.029,-0.02,0.017,-0.014,102.0,101.0,101.0,13.4,1505.2,340.0,-0.8,1.8,2471.437,13.29,0.026,310.4
2023-04-09T08:13:03,42.805,6.029,-0.02,0.006,-0.05,102.0,101.0,101.0,13.4,1505.2,329.5,-0.8,1.8,2471.427,13.29,0.02,286.7
2023-04-09T08:16:03,42.805,6.029,0.002,-0.016,-0.017,102.0,101.0,101.0,13.4,1505.2,335.6,-0.7,1.8,2471.435,13.29,0.016,172.9
2023-04-09T08:19:03,42.805,6.029,0.023,-0.018,0.008,103.0,100.0,101.0,13.4,1505.2,345.0,-0.8,1.8,2471.423,13.29,0.029,128.0
2023-04-09T08:22:03,42.805,6.029,0.004,-0.024,-0.036,102.0,101.0,101.0,13.3,1505.2,320.9,-0.7,1.8,2471.423,13.29,0.024,170.5
2023-04-09T08:25:03,42.805,6.029,-0.022,-0.02,-0.074,102.0,103.0,101.0,13.3,1505.2,328.0,-0.8,1.8,2471.417,13.29,0.029,227.7
2023-04-09T08:28:03,42.805,6.029,0.015,-0.032,-0.031,102.0,102.0,104.0,13.4,1505.2,334.9,-0.7,1.9,2471.367,13.29,0.035,154.9
2023-04-09T08:31:03,42.805,6.029,0.003,-0.011,-0.043,102.0,102.0,101.0,13.4,1505.2,320.3,-0.8,1.8,2471.398,13.29,0.011,164.7
2023-04-09T08:34:03,42.805,6.029,0.016,-0.013,-0.019,101.0,102.0,100.0,13.4,1505.2,321.6,-0.8,1.8,2471.416,13.29,0.02,129.1
2023-04-09T08:37:03,42.805,6.029,0.004,-0.003,-0.029,102.0,102.0,102.0,13.4,1505.2,327.8,-0.8,1.8,2471.433,13.29,0.005,126.9
2023-04-09T08:40:03,42.805,6.029,0.003,-0.015,-0.032,104.0,104.0,102.0,13.4,1505.2,341.2,-0.8,1.8,2471.408,13.29,0.015,168.7
2023-04-09T08:43:03,42.805,6.029,-0.039,-0.008,-0.072,102.0,103.0,100.0,13.3,1505.2,323.9,-0.7,1.8,2471.398,13.29,0.039,258.4
2023-04-09T08:46:03,42.805,6.029,0.015,-0.007,-0.011,102.0,103.0,101.0,13.3,1505.2,326.3,-0.8,1.8,2471.383,13.29,0.016,115.0
2023-04-09T08:49:03,42.805,6.029,0.006,-0.014,-0.032,103.0,102.0,101.0,13.4,1505.2,320.3,-0.8,1.8,2471.38,13.29,0.015,156.8
2023-04-09T08:52:03,42.805,6.029,0.0,-0.024,-0.036,102.0,102.0,100.0,13.4,1505.2,323.5,-0.8,1.8,2471.406,13.29,0.024,180.0
2023-04-09T08:55:03,42.805,6.029,-0.004,-0.003,-0.035,103.0,102.0,100.0,13.4,1505.2,335.8,-0.8,1.8,2471.416,13.29,0.005,233.1
2023-04-09T08:58:03,42.805,6.029,-0.004,-0.01,-0.041,103.0,103.0,101.0,13.4,1505.2,333.4,-0.8,1.8,2471.389,13.29,0.01,201.8
2023-04-09T09:04:03,42.805,6.029,-0.004,0.001,-0.016,100.0,101.0,101.0,13.4,1505.2,328.6,-0.8,1.8,2471.434,13.28,0.004,284.0
2023-04-09T09:07:03,42.805,6.029,0.009,0.009,0.035,101.0,101.0,101.0,13.3,1505.2,338.5,-0.8,1.8,2471.4,13.28,0.012,45.0
2023-04-09T09:10:03,42.805,6.029,0.005,0.004,-0.007,101.0,101.0,101.0,13.3,1505.2,334.2,-0.8,1.8,2471.448,13.28,0.006,51.3
2023-04-09T09:13:03,42.805,6.029,-0.027,0.007,-0.034,101.0,101.0,101.0,13.4,1505.2,343.9,-0.8,1.8,2471.458,13.29,0.027,284.5
2023-04-09T09:16:03,42.805,6.029,-0.016,0.009,-0.012,103.0,102.0,100.0,13.4,1505.2,322.9,-0.8,1.8,2471.395,13.29,0.018,299.4
2023-04-09T09:19:03,42.805,6.029,0.005,-0.022,-0.038,102.0,102.0,101.0,13.4,1505.2,328.8,-0.8,1.8,2471.399,13.29,0.022,167.2
2023-04-09T09:22:03,42.805,6.029,-0.01,0.004,-0.014,103.0,102.0,102.0,13.4,1505.2,334.8,-0.8,1.8,2471.413,13.29,0.01,291.8
2023-04-09T09:25:03,42.805,6.029,0.014,-0.02,-0.013,101.0,102.0,102.0,13.3,1505.2,335.4,-0.8,1.8,2471.403,13.29,0.024,145.0
2023-04-09T09:28:03,42.805,6.029,0.001,0.001,-0.015,101.0,102.0,101.0,13.3,1505.2,333.4,-0.8,1.8,2471.39,13.29,0.001,45.0
2023-04-09T09:31:03,42.805,6.029,-0.017,-0.014,-0.041,102.0,101.0,102.0,13.4,1505.2,337.1,-0.7,1.8,2471.41,13.29,0.022,230.5
2023-04-09T09:34:03,42.805,6.029,-0.007,0.003,0.006,102.0,102.0,101.0,13.4,1505.2,316.2,-0.7,1.8,2471.401,13.29,0.007,293.2
2023-04-09T09:37:03,42.805,6.029,0.0,-0.011,-0.056,101.0,102.0,100.0,13.4,1505.2,326.3,-0.7,1.8,2471.41,13.29,0.011,180.0
2023-04-09T09:40:03,42.805,6.029,-0.002,0.008,-0.018,101.0,101.0,101.0,13.4,1505.2,335.0,-0.7,1.8,2471.42,13.29,0.008,346.0
2023-04-09T09:43:03,42.805,6.029,0.021,-0.023,-0.05,102.0,101.0,100.0,13.4,1505.2,333.8,-0.8,1.9,2471.355,13.29,0.031,137.6
2023-04-09T09:46:04,42.805,6.029,-0.005,0.028,-0.006,102.0,102.0,101.0,13.4,1505.2,334.6,-0.8,1.8,2471.407,13.29,0.028,349.9
2023-04-09T09:49:03,42.805,6.029,0.003,-0.013,-0.038,101.0,101.0,101.0,13.4,1505.2,317.3,-0.8,1.8,2471.378,13.29,0.013,167.0
2023-04-09T09:52:03,42.805,6.029,-0.005,0.006,-0.022,104.0,103.0,100.0,13.4,1505.2,326.0,-0.8,1.8,2471.344,13.29,0.007,320.2
2023-04-09T09:55:03,42.805,6.029,-0.004,0.017,0.01,101.0,102.0,101.0,13.4,1505.2,318.8,-0.8,1.8,2471.375,13.29,0.017,346.8